Regional Weather Roundup
Issued by NWS Mt. Holly, NJ

Home | Current Version | Previous Version | Text Only | Print | Product List | Glossary On
Versions: 1 2 3 4 5 6 7 8 9 10 11 12 13 14 15 16 17 18 19 20 21 22 23 24 25 26 27
000
ASUS41 KPHI 210412
RWRPHI

REGIONAL WEATHER ROUNDUP
NATIONAL WEATHER SERVICE MOUNT HOLLY NJ
1100 PM EST MON FEB 20 2017

NOTE:  "FAIR" INDICATES FEW OR NO CLOUDS BELOW 12,000 FEET WITH NO
SIGNIFICANT WEATHER AND/OR OBSTRUCTIONS TO VISIBILITY.

 * = STATION DOES NOT REPORT PRECIPITATION (E.G. RAIN, SNOW, ETC.)
        OR FOG.

NJZ015>026-210500-
SOUTHERN NEW JERSEY

CITY           SKY/WX    TMP DP  RH WIND       PRES   REMARKS
POMONA         CLEAR     40  21  46 NE10      30.33R WCI  33
WILDWOOD*      CLEAR     43  31  62 NE8       30.34R
MILLVILLE      CLEAR     42  19  39 E9        30.34R
WRIGHTSTOWN    CLEAR     35  16  45 NE3       30.32R
MOUNT HOLLY    CLEAR     40  12  32 NE5       30.35R
TRENTON        CLEAR     39  13  34 NE8       30.35R WCI  33

$$
NJZ001>014-210500-
NORTHERN NEW JERSEY

CITY           SKY/WX    TMP DP  RH WIND       PRES   REMARKS
SUSSEX         CLEAR     30  19  63 CALM      30.35S
ANDOVER*         N/A     28  19  69 CALM      30.35R
MORRISTOWN     CLEAR     32  19  59 CALM      30.36S
NEWARK         PTCLDY    38  17  42 N14       30.36R WCI  30
TETERBORO      CLEAR     40  17  39 N5        30.36R
CALDWELL       CLEAR     36  16  44 CALM      30.37R
SOMERVILLE     CLEAR     34  14  43 N5        30.35R WCI  30
ALLAIRE*       CLEAR     40  16  37 N8        30.35R WCI  34
TOMS RIVER*    CLEAR     35  15  44 NE3       30.35R

$$
PAZ043-044-047-054-055-060>062-066>071-210500-
EASTERN PENNSYLVANIA

CITY           SKY/WX    TMP DP  RH WIND       PRES   REMARKS
PHILADELPHIA   PTCLDY    44  12  27 NE10      30.35R
NORTH PHILA    CLEAR     38  13  35 NE6       30.37R WCI  33
BLUE BELL*     PTCLDY    37  14  38 CALM      30.34S
DOYLESTOWN     CLEAR     38  11  32 NE5       30.34R WCI  34
QUAKERTOWN*    CLOUDY    36  14  41 NE5       30.35S WCI  32
PERKASIE*      FAIR      37  10  32 NE7       30.35S WCI  32
POTTSTOWN      PTCLDY    39  12  33 NE5       30.36R
LANCASTER      CLOUDY    38  18  44 NE10      30.33R WCI  31
COATESVILLE    PTCLDY    41  12  30 NE3       30.34S
READING        CLOUDY    41  14  33 N6        30.34R
ALLENTOWN      CLOUDY    34  14  43 NE6       30.36R WCI  29
MOUNT POCONO   CLOUDY    26  15  63 S3        30.29R
HAZLETON       CLOUDY    30  12  47 SE3       30.34S
LEHIGHTON      FAIR      28  19  69 CALM      30.36S
WILKES BARRE   CLOUDY    31  17  56 E3        30.33R

$$
DEZALL-MDZ008-012-015-019-020-210500-
DELAWARE AND EASTERN MARYLAND

CITY           SKY/WX    TMP DP  RH WIND       PRES   REMARKS
WILMINGTON     CLEAR     43  17  35 NE9       30.34R
DOVER          CLEAR     40  29  65 N8        30.32R WCI  34
GEORGETOWN     CLEAR     37  31  78 CALM      30.32R
EASTON         CLEAR     43  29  57 E6        30.35R
ABERDEEN       CLEAR     43  21  41 NE10      30.34R
PATUXENT       CLEAR     40  34  79 CALM      30.29R
OCEAN CITY     CLEAR     37  33  85 CALM      30.31R
WALLOPS ISLAND CLEAR     42  38  85 NE3       30.30S
SALISBURY      CLEAR     36  33  89 CALM      30.30R

$$
PAZ001-021-NYZ056-072-MDZ011-DCZ001-210500-
OTHER NEARBY LOCATIONS

CITY           SKY/WX    TMP DP  RH WIND       PRES   REMARKS
HARRISBURG     PTCLDY    41  22  46 CALM      30.32R
STATE COLLEGE  PTCLDY    39  23  53 NE3       30.29S
WILLIAMSPORT   PTCLDY    32  23  69 E3        30.34R
BINGHAMTON     CLOUDY    27  14  58 E3        30.31R
NEW YORK CITY  CLEAR     41  15  35 NE9       30.37R
BALTIMORE      PTCLDY    48  27  44 NE7       30.31R
WASHINGTON DC  PTCLDY    50  30  46 NE8       30.30R

$$




USA.gov is the U.S. government's official web portal to all federal, state and local government web resources and services.